Location: Quaker Farms
(41.4276°N, 73.1557°W)
Time: 07:45:31
(UTC+00:00)

deb Explorer IX - All Passes

Search period start: 15 June 2021 00:00
Search period end: 25 June 2021 00:00
Orbit: 542 x 1097 km, 38.8° (Epoch: 14 June)

Date Brightness Start Highest point End Pass type
(mag) Time Alt. Az. Time Alt. Az. Time Alt. Az.
15 Jun - 12:22:34 10° SSW 12:25:55 24° SSE 12:29:26 10° E daylight
15 Jun - 14:07:59 10° WSW 14:12:07 57° S 14:16:46 10° E daylight
15 Jun - 15:54:15 10° W 15:58:41 58° S 16:03:50 10° ESE daylight
15 Jun - 17:40:54 10° W 17:45:12 30° SSW 17:50:08 10° SE daylight
16 Jun - 11:58:50 10° SSW 12:02:08 24° SSE 12:05:34 10° E daylight
16 Jun - 13:44:16 10° WSW 13:48:20 56° S 13:52:50 10° E daylight
16 Jun - 15:30:33 10° W 15:34:52 57° S 15:39:50 10° ESE daylight
16 Jun - 17:17:13 10° W 17:21:21 29° SSW 17:26:03 10° SE daylight
17 Jun - 11:35:04 10° SSW 11:38:22 24° SSE 11:41:44 10° E daylight
17 Jun - 13:20:33 10° WSW 13:24:33 56° S 13:28:56 10° E daylight
17 Jun - 15:06:50 10° W 15:11:04 56° S 15:15:52 10° ESE daylight
17 Jun - 16:53:31 10° W 16:57:30 28° SSW 17:02:00 10° SE daylight
18 Jun - 11:11:17 10° SSW 11:14:35 24° SSE 11:17:55 10° E daylight
18 Jun - 12:56:48 10° WSW 13:00:47 55° S 13:05:02 10° E daylight
18 Jun - 14:43:08 10° W 14:47:16 55° S 14:51:53 10° ESE daylight
18 Jun - 16:29:50 10° W 16:33:40 27° SSW 16:37:58 10° SSE daylight
19 Jun - 10:47:27 10° SSW 10:50:48 24° SSE 10:54:07 10° E daylight
19 Jun - 12:33:02 10° WSW 12:37:01 55° S 12:41:10 10° E daylight
19 Jun - 14:19:25 10° W 14:23:28 55° S 14:27:57 10° ESE daylight
19 Jun - 16:06:09 10° W 16:09:50 26° SSW 16:13:56 10° SSE daylight
20 Jun - 10:23:36 10° SSW 10:27:01 24° SSE 10:30:20 10° E daylight
20 Jun - 12:09:16 10° WSW 12:13:14 55° S 12:17:20 10° E daylight
20 Jun - 13:55:41 10° W 13:59:41 54° S 14:04:02 10° ESE daylight
20 Jun - 15:42:27 10° W 15:46:01 25° SSW 15:49:55 10° SSE daylight
21 Jun - 09:59:44 10° SSW 10:03:14 25° SSE 10:06:35 10° E daylight
21 Jun - 11:45:27 10° WSW 11:49:28 55° S 11:53:29 10° E daylight
21 Jun - 13:31:55 10° W 13:35:54 53° S 13:40:07 10° ESE daylight
21 Jun - 15:18:45 10° WSW 15:22:11 24° SSW 15:25:56 10° SSE daylight
22 Jun - 09:35:49 10° SSW 09:39:25 25° SSE 09:42:49 10° E daylight
22 Jun - 11:21:37 10° WSW 11:25:41 55° S 11:29:40 10° E daylight
22 Jun - 13:08:09 10° W 13:12:07 53° S 13:16:15 10° ESE daylight
22 Jun - 14:55:01 10° WSW 14:58:22 23° SSW 15:01:58 10° SSE daylight
23 Jun - 09:11:53 10° SSW 09:15:37 26° SSE 09:19:05 10° E daylight
23 Jun - 10:57:46 10° WSW 11:01:54 55° S 11:05:53 10° E daylight
23 Jun - 12:44:21 10° W 12:48:19 53° S 12:52:22 10° ESE daylight
23 Jun - 14:31:17 10° WSW 14:34:34 23° SSW 14:38:01 10° SSE daylight
24 Jun - 08:47:55 10° SW 08:51:47 26° SSE 08:55:22 10° E visible
24 Jun - 10:33:53 10° WSW 10:38:07 56° S 10:42:06 10° E daylight
24 Jun - 12:20:32 10° W 12:24:32 52° S 12:28:32 10° ESE daylight
24 Jun - 14:07:32 10° WSW 14:10:44 22° SSW 14:14:05 10° SSE daylight
